Weather History for Glenwood, MN

Change the Weather History Date:

Saturday, September 22, 2012

  Actual Average Record
Temperature  
Mean Temperature 47 °F -  
Max Temperature 55 °F 65 °F 85 °F (1958)
Min Temperature 37 °F 42 °F 25 °F (1974)
Degree Days  
Heating Degree Days 18    
Moisture  
Dew Point 32 °F    
Average Humidity 59    
Maximum Humidity 87    
Minimum Humidity 28    
Precipitation  
Precipitation 0.00 in - - ()
Sea Level Pressure  
Sea Level Pressure 30.17 in    
Wind  
Wind Speed 14 mph (NW)    
Max Wind Speed 17 mph    
Max Gust Speed 30 mph    
Visibility 10 miles    
Events      
Averages and records for this station are not official NWS values.
T = Trace of Precipitation, MM = Missing Value Source: NWS Daily Summary

Daily Weather History Graph

Daily Weather History Graph

Search for Another Location

Airport:

Trip Planner

Search our weather history database for the weather conditions in past years. The results will help you decide how hot, cold, wet, or windy it might be!

Date:

Astronomy

Sep. 22, 2012 Rise Set
Actual Time 7:08 AM CDT 7:17 PM CDT
Civil Twilight 6:39 AM CDT 7:47 PM CDT
Nautical Twilight 6:04 AM CDT 8:22 PM CDT
Astronomical Twilight 5:28 AM CDT 8:57 PM CDT
Moon 2:45 PM CDT (9/22) No Moon Set
Length of Visible Light 13h 08m
Length of Day
12h 08m
Waxing Crescent, 49% of the Moon is Illuminated
Sep 22
Waxing Crescent
Sep 22
First Quarter
Sep 29
Full
Oct 8
Last Quarter
Oct 15
New

Hourly Weather History & Observations

Time (CDT) Temp. Windchill Dew Point Humidity Pressure Visibility Wind Dir Wind Speed Gust Speed Precip Events Conditions
12:13 AM 39.2 °F 32.0 °F 24.8 °F 56% 29.99 in 10.0 mi NNW 11.5 mph 29.9 mph N/A   Clear
12:33 AM 39.2 °F 30.8 °F 26.6 °F 61% 29.99 in 10.0 mi NW 15.0 mph 18.4 mph N/A   Clear
12:53 AM 39.2 °F 30.5 °F 26.6 °F 61% 29.99 in 10.0 mi NW 16.1 mph 21.9 mph N/A   Clear
1:13 AM 39.2 °F 30.2 °F 26.6 °F 61% 30.00 in 10.0 mi NW 17.3 mph 24.2 mph N/A   Clear
1:33 AM 39.2 °F 31.6 °F 28.4 °F 65% 30.01 in 10.0 mi NNW 12.7 mph 19.6 mph N/A   Clear
1:53 AM 39.2 °F 30.5 °F 28.4 °F 65% 30.02 in 10.0 mi NNW 16.1 mph 25.3 mph N/A   Clear
2:13 AM 39.2 °F 31.6 °F 28.4 °F 65% 30.03 in 10.0 mi NW 12.7 mph 24.2 mph N/A   Scattered Clouds
2:33 AM 39.2 °F 30.2 °F 30.2 °F 70% 30.03 in 10.0 mi NW 17.3 mph 20.7 mph N/A   Mostly Cloudy
2:53 AM 41.0 °F 32.8 °F 30.2 °F 65% 30.03 in 10.0 mi NW 16.1 mph 24.2 mph N/A   Overcast
3:13 AM 41.0 °F 32.8 °F 32.0 °F 70% 30.03 in 10.0 mi NW 16.1 mph 21.9 mph N/A   Overcast
3:33 AM 41.0 °F 32.8 °F 32.0 °F 70% 30.04 in 10.0 mi NNW 16.1 mph 20.7 mph N/A   Overcast
3:53 AM 41.0 °F 32.8 °F 33.8 °F 76% 30.05 in 10.0 mi NNW 16.1 mph 23.0 mph N/A   Overcast
4:13 AM 42.8 °F 35.1 °F 33.8 °F 70% 30.06 in 10.0 mi NNW 16.1 mph 21.9 mph N/A   Overcast
4:33 AM 42.8 °F 34.8 °F 35.6 °F 76% 30.07 in 10.0 mi NNW 17.3 mph 24.2 mph N/A   Overcast
4:54 AM 42.8 °F 35.4 °F 35.6 °F 76% 30.09 in 10.0 mi North 15.0 mph 26.5 mph N/A   Overcast
5:13 AM 42.8 °F 36.2 °F 35.6 °F 76% 30.09 in 10.0 mi NNW 12.7 mph 24.2 mph N/A   Overcast
5:33 AM 42.8 °F 36.6 °F 35.6 °F 76% 30.11 in 10.0 mi NW 11.5 mph 17.3 mph N/A   Overcast
5:54 AM 42.8 °F 35.8 °F 35.6 °F 76% 30.12 in 10.0 mi NNW 13.8 mph 17.3 mph N/A   Overcast
6:13 AM 42.8 °F 35.4 °F 35.6 °F 76% 30.13 in 10.0 mi NW 15.0 mph 19.6 mph N/A   Overcast
6:33 AM 42.8 °F 35.8 °F 35.6 °F 76% 30.14 in 10.0 mi NW 13.8 mph - N/A   Overcast
6:54 AM 42.8 °F 35.1 °F 35.6 °F 76% 30.15 in 10.0 mi NNW 16.1 mph - N/A   Overcast
7:13 AM 42.8 °F 35.1 °F 35.6 °F 76% 30.16 in 10.0 mi NW 16.1 mph 20.7 mph N/A   Overcast
7:33 AM 42.8 °F 37.0 °F 35.6 °F 76% 30.18 in 10.0 mi NNW 10.4 mph 24.2 mph N/A   Mostly Cloudy
7:54 AM 39.2 °F 32.5 °F 35.6 °F 87% 30.19 in 10.0 mi NW 10.4 mph - N/A   Scattered Clouds
8:13 AM 41.0 °F 34.7 °F 35.6 °F 81% 30.19 in 10.0 mi NNW 10.4 mph - N/A   Clear
8:33 AM 42.8 °F 37.5 °F 35.6 °F 76% 30.20 in 10.0 mi NNW 9.2 mph - N/A   Clear
8:54 AM 44.6 °F 38.8 °F 35.6 °F 71% 30.21 in 10.0 mi NNW 11.5 mph - N/A   Clear
9:13 AM 44.6 °F 38.4 °F 35.6 °F 71% 30.22 in 10.0 mi NNW 12.7 mph - N/A   Clear
9:34 AM 46.4 °F 40.7 °F 35.6 °F 66% 30.23 in 10.0 mi North 12.7 mph - N/A   Clear
9:53 AM 48.2 °F - 37.4 °F 66% 30.23 in 10.0 mi NW 12.7 mph 18.4 mph N/A   Scattered Clouds
10:13 AM 46.4 °F 41.1 °F 35.6 °F 66% 30.24 in 10.0 mi NW 11.5 mph - N/A   Scattered Clouds
10:34 AM 48.2 °F - 35.6 °F 62% 30.24 in 10.0 mi NW 9.2 mph - N/A   Scattered Clouds
10:53 AM 48.2 °F - 37.4 °F 66% 30.24 in 10.0 mi NW 13.8 mph 20.7 mph N/A   Scattered Clouds
11:13 AM 50.0 °F - 35.6 °F 58% 30.24 in 10.0 mi NW 15.0 mph 18.4 mph N/A   Scattered Clouds
11:34 AM 50.0 °F - 35.6 °F 58% 30.24 in 10.0 mi NNW 11.5 mph 18.4 mph N/A   Clear
11:53 AM 51.8 °F - 35.6 °F 54% 30.24 in 10.0 mi NW 9.2 mph 18.4 mph N/A   Clear
12:13 PM 51.8 °F - 35.6 °F 54% 30.24 in 10.0 mi NW 13.8 mph 19.6 mph N/A   Scattered Clouds
12:34 PM 51.8 °F - 33.8 °F 50% 30.24 in 10.0 mi NW 12.7 mph 17.3 mph N/A   Clear
12:53 PM 53.6 °F - 30.2 °F 41% 30.24 in 10.0 mi WNW 16.1 mph 24.2 mph N/A   Clear
1:13 PM 53.6 °F - 28.4 °F 38% 30.24 in 10.0 mi NW 12.7 mph 21.9 mph N/A   Clear
1:53 PM 53.6 °F - 21.2 °F 28% 30.24 in 10.0 mi NW 15.0 mph 25.3 mph N/A   Clear
2:13 PM 53.6 °F - 24.8 °F 33% 30.24 in 10.0 mi WNW 13.8 mph 20.7 mph N/A   Clear
2:34 PM 55.4 °F - 26.6 °F 33% 30.24 in 10.0 mi NW 16.1 mph 27.6 mph N/A   Clear
3:13 PM 53.6 °F - 28.4 °F 38% 30.24 in 10.0 mi NW 17.3 mph 23.0 mph N/A   Clear
3:34 PM 53.6 °F - 28.4 °F 38% 30.23 in 10.0 mi NNW 15.0 mph 18.4 mph N/A   Clear
3:53 PM 53.6 °F - 28.4 °F 38% 30.24 in 10.0 mi NW 13.8 mph 23.0 mph N/A   Clear
4:13 PM 53.6 °F - 28.4 °F 38% 30.24 in 10.0 mi NW 17.3 mph 24.2 mph N/A   Clear
4:34 PM 53.6 °F - 28.4 °F 38% 30.24 in 10.0 mi NW 13.8 mph 24.2 mph N/A   Clear
4:53 PM 53.6 °F - 28.4 °F 38% 30.23 in 10.0 mi NNW 16.1 mph 23.0 mph N/A   Unknown
5:13 PM 53.6 °F - 28.4 °F 38% 30.24 in 10.0 mi NW 15.0 mph 24.2 mph N/A   Unknown
5:34 PM 53.6 °F - 28.4 °F 38% 30.24 in 10.0 mi NW 12.7 mph 18.4 mph N/A   Unknown
5:53 PM 51.8 °F - 28.4 °F 41% 30.24 in 10.0 mi NNW 13.8 mph - N/A   Clear
6:14 PM 51.8 °F - 28.4 °F 41% 30.24 in 10.0 mi NW 11.5 mph - N/A   Clear
6:33 PM 51.8 °F - 28.4 °F 41% 30.24 in 10.0 mi NW 10.4 mph - N/A   Clear
6:34 PM 51.8 °F - 28.4 °F 41% 30.24 in 10.0 mi NW 9.2 mph - N/A   Clear
8:21 PM 41.0 °F 38.0 °F 28.4 °F 61% 30.25 in 10.0 mi NW 4.6 mph - N/A   Clear
9:21 PM 39.2 °F 35.0 °F 28.4 °F 65% 30.26 in 10.0 mi WNW 5.8 mph - N/A   Clear
10:01 PM 37.4 °F 32.8 °F 28.4 °F 70% 30.26 in 10.0 mi WNW 5.8 mph - N/A   Clear